Orbital Elements at Epoch 2459200.5 (2020-Dec-17.0) TDB
Reference: JPL 29 (heliocentric ecliptic J2000)
Element | Value | Uncertainty (1-sigma) | Units |
e | .1215158491799861 | 2.8993e-08 | |
a | 2.764839130404609 | 1.0924e-08 | au |
q | 2.428867355627438 | 8.1318e-08 | au |
i | 4.63777433963814 | 4.0722e-06 | deg |
node | 191.9318179482853 | 3.972e-05 | deg |
peri | 265.4810683331065 | 4.3687e-05 | deg |
M | 36.4313344980682 | 1.7385e-05 | deg |
tp | 2459030.567750259386 (2020-Jun-30.06775026) | 8.0948e-05 | TDB |
period | 1679.203102204915 4.60 | 9.9522e-06 2.725e-08 | d yr |
n | .2143874076502681 | 1.2706e-09 | deg/d |
Q | 3.100810905181779 | 1.2252e-08 | au |
|
| | Orbit Determination Parameters
Additional Information
|